Location: Cahas Mountain Overlook
(37.0833°N, 80.1000°W)
Time: 19:17:30
(UTC-04:00)

SR - Pass Details

Date: 13 February 2026
Orbit: 572 x 849 km, 66.7° (Epoch: 13 March)

Event Time Altitude Azimuth Distance (km) Brightness Sun altitude
Rises 14:16:11 0° 340° (NNW) 3,078 ? 34.4°
Reaches altitude 10° 14:18:36 10° 349° (N) 2,203 ? 34.1°
Maximum altitude 14:23:18 37° 57° (ENE) 1,158 ? 33.6°
Drops below altitude 10° 14:28:17 10° 124° (SE) 2,356 ? 33.1°
Sets 14:30:57 0° 133° (SE) 3,319 ? 32.8°
